Location: *
(6.0000°S, 32.3997°W)
Time: 18:33:35
(UTC+00:00)

Envisat - Pass Details

Date: 01 April 2020
Orbit: 764 x 766 km, 98.1° (Epoch: 28 May)

Event Time Altitude Azimuth Distance (km) Brightness Sun altitude
Rises 20:45:17 0° 181° (S) 3,234 6.2 -8.5°
Reaches altitude 10° 20:47:41 10° 187° (S) 2,305 5.5 -9.1°
Maximum altitude 20:52:27 42° 257° (WSW) 1,083 4.4 -10.2°
Drops below altitude 10° 20:57:13 10° 327° (NNW) 2,293 6.0 -11.4°
Sets 20:59:37 0° 334° (NNW) 3,215 6.7 -12.0°
